Flag for Germany Weather past 2 weeks in Würselen, North Rhine-Westphalia, Germany

Now
59 °F

Scattered clouds.


Feels Like: 58 °F
Forecast: 46 / 64 °F
Wind: 6 mph from Southwest

Location: Geilenkirchen Airport

Current Time: Sep 2, 2015 at 10:52:27 AM

Latest Report: Sep 2, 2015 at 9:50 AM


Visibility: N/A

Pressure: 30.04 "Hg

Humidity: 82%

Dew point: 54 °F

Location of WürselenLocation

Historic Weather in Würselen — Graph

°F

Würselen temperature yesterday

Maximum temperature yesterday: 70 °F (at 12:50 AM)
Minimum temperature yesterday: 54 °F (at 11:50 PM)
Average temperature yesterday: 61 °F

Past Weeks' High & Low Weather Summary

 TemperatureHumidityPressure
High90 °F (Aug 31, 3:50 PM)100% (Aug 24, 4:50 AM)30.24 "Hg (Aug 24, 4:50 AM)
Low50 °F (Aug 20, 6:50 AM)33% (Aug 31, 3:50 PM)29.53 "Hg (Aug 24, 2:50 PM)
Average65 °F72%29.95 "Hg
* Reported Aug 18 8:50 AM — Sep 2 8:50 AM, Würselen, Weather by CustomWeather, © 2015

Note: Actual official high and low records may vary slightly from our data, if they occured in-between our weather recording intervals... More about our weather records

Advertising

Würselen weather history for previous 24 hours

 ConditionsComfort  
Time TempWeatherWind HumidityBarometerVisibility
8:50 AM
Wed, Sep 2
57 °FPassing clouds.5 mph82%30.04 "HgN/A
7:50 AM55 °FScattered clouds.2 mph88%30.04 "HgN/A
6:50 AM54 °FPassing clouds.2 mph94%30.04 "HgN/A
5:50 AM54 °FPassing clouds.5 mph88%30.07 "HgN/A
4:50 AM52 °FPassing clouds.2 mph94%30.07 "HgN/A
3:50 AM54 °FClear.2 mph88%30.07 "Hg10 mi
2:50 AM54 °FClear.3 mph88%30.07 "Hg10 mi
1:50 AM54 °FClear.1 mph88%30.07 "Hg10 mi
12:50 AM55 °FClear.2 mph88%30.07 "Hg10 mi
11:50 PM
Tue, Sep 1
54 °FClear.3 mph88%30.07 "Hg10 mi
10:50 PM55 °FClear.3 mph82%30.07 "Hg10 mi
9:50 PM57 °FClear.7 mph77%30.04 "Hg10 mi
8:50 PM61 °FPartly sunny.9 mph77%30.04 "HgN/A
7:50 PM61 °FPartly sunny.7 mph77%30.01 "HgN/A
6:50 PM64 °FScattered clouds.12 mph68%30.01 "HgN/A
5:50 PM64 °FScattered clouds.7 mph73%29.98 "HgN/A
4:50 PM61 °FBroken clouds.9 mph88%29.98 "HgN/A
3:50 PM64 °FBroken clouds.6 mph78%29.95 "HgN/A
2:50 PM64 °FBroken clouds.10 mph78%29.95 "HgN/A
1:50 PM63 °FBroken clouds.10 mph88%29.95 "HgN/A
12:50 PM61 °FSprinkles. Broken clouds.7 mph88%29.92 "HgN/A
11:50 AM61 °FLight rain. Broken clouds.7 mph94%29.89 "Hg6 mi
10:50 AM59 °FLight rain. Broken clouds.7 mph94%29.86 "Hg5 mi
Weather by CustomWeather, © 2015

See weather overviewHow to use our weather pages